DateTimeUTC,F1_A11,F1_S11,BsB_S11,BsG_S11,BsR_S11,BbsB_S11,BbsG_S11,BbsR_S11,BaB_A11,BaG_A11,BaR_A11,Tu_S11,T_S11,Uu_S11,U_S11,P_S11,T1_A11
2021-05-03T10:00:00Z,00000200,21000000,,,,,,,-000.03,0000.01,0000.11,18.5,25.4,,00.0,0680.7,31.2
2021-05-03T10:01:00Z,00000200,21000000,,,,,,,-000.20,-000.34,-000.23,18.5,25.4,,00.0,0680.8,31.2
2021-05-03T10:02:00Z,00000200,21000000,,,,,,,-000.37,0000.10,-000.05,18.5,25.4,,00.0,0680.8,31.2
2021-05-03T10:03:00Z,00000200,61000000,,,,,,,0000.99,0000.86,0000.75,18.5,25.4,,00.0,0680.8,31.2
2021-05-03T10:04:00Z,00000200,41000000,0003.30,0002.27,0000.83,0000.33,0000.16,0000.12,0000.81,0000.82,0000.67,18.7,25.3,,00.0,0681.7,31.2
2021-05-03T10:05:00Z,00000200,01000000,0003.05,0002.28,0000.89,0000.81,0000.36,0000.05,0000.76,0000.50,0000.45,18.8,25.3,,00.0,0681.8,31.2
2021-05-03T10:06:00Z,00000200,01000000,0002.74,0002.06,0001.35,0000.74,0000.26,-000.05,0001.33,0001.18,0000.59,18.8,25.3,,00.0,0681.8,31.2
2021-05-03T10:07:00Z,00000200,01000000,0002.85,0001.68,0001.08,0000.70,0000.06,0000.19,0001.05,0000.93,0000.90,18.8,25.3,,00.0,0681.8,31.2
2021-05-03T10:08:00Z,00000200,01000000,0003.16,0001.93,0000.91,0000.35,0000.30,0000.17,0000.93,0000.91,0000.61,18.8,25.3,,00.0,0681.8,31.2
2021-05-03T10:09:00Z,00000200,01000000,0002.65,0001.61,0001.12,0000.96,0000.13,0000.09,0001.60,0001.10,0000.78,18.8,25.3,,00.0,0681.8,31.2
2021-05-03T10:10:00Z,00000200,01000000,0002.87,0001.94,0000.91,0000.05,0000.36,0000.10,0001.14,0000.99,0000.63,18.8,25.3,,00.0,0681.8,31.2
2021-05-03T10:11:00Z,00000200,01000000,0003.49,0001.90,0001.30,0000.58,0000.09,0000.25,0000.69,0001.11,0000.69,18.8,25.3,,00.0,0681.8,31.2
2021-05-03T10:12:00Z,00000200,01000000,0002.99,0001.96,0001.09,0000.56,0000.20,0000.09,0001.26,0000.91,0000.75,18.9,25.3,,00.0,0681.8,31.2
2021-05-03T10:13:00Z,00000200,01000000,0002.92,0002.07,0001.03,0000.73,0000.25,-000.01,0001.28,0001.37,0000.96,18.9,25.3,,00.0,0681.8,31.2
2021-05-03T10:14:00Z,00000200,01000000,0003.28,0002.06,0001.15,0000.82,0000.30,0000.40,0001.40,0000.95,0001.07,18.9,25.3,,00.0,0681.8,31.2
2021-05-03T10:15:00Z,00000200,01000000,0003.48,0002.44,0001.31,0000.60,0000.31,0000.13,0001.37,0001.51,0000.67,18.9,25.3,,00.0,0681.8,31.2
2021-05-03T10:16:00Z,00000200,01000000,0003.38,0002.01,0001.07,0000.31,0000.19,0000.11,0001.51,0001.67,0000.95,18.9,25.3,,00.0,0681.8,31.2
2021-05-03T10:17:00Z,00000200,01000000,0003.02,0002.05,0001.11,0000.38,0000.32,0000.08,0000.91,0000.62,0000.64,18.9,25.4,,00.0,0681.8,31.2
2021-05-03T10:18:00Z,00000200,01000000,0003.07,0002.31,0001.24,0000.51,0000.45,0000.08,0001.38,0000.78,0000.98,19.0,25.4,,00.0,0681.8,31.2
2021-05-03T10:19:00Z,00000200,01000000,0003.46,0001.99,0001.19,0000.82,0000.28,0000.06,0001.33,0001.28,0000.57,19.0,25.4,,00.0,0681.8,31.2
2021-05-03T10:20:00Z,00000200,01000000,0003.80,0002.04,0001.37,0001.19,0000.18,0000.12,0001.35,0001.23,0000.87,19.0,25.4,,00.0,0681.8,31.2
2021-05-03T10:21:00Z,00000200,01000000,0003.01,0002.08,0001.38,0000.98,0000.39,0000.39,0001.06,0001.09,0000.87,19.0,25.4,,00.0,0681.8,31.2
2021-05-03T10:22:00Z,00000200,01000000,0003.25,0002.34,0001.17,0000.53,0000.13,0000.12,0001.46,0000.91,0000.46,19.0,25.4,,00.0,0681.8,31.2
2021-05-03T10:23:00Z,00000200,01000000,0002.69,0002.34,0001.35,0000.64,0000.13,0000.26,0000.86,0000.99,0000.85,19.0,25.4,,00.0,0681.8,31.2
2021-05-03T10:24:00Z,00000200,01000000,0003.74,0002.40,0001.29,0000.66,0000.34,0000.20,0001.61,0001.32,0001.37,19.0,25.4,,00.0,0681.8,31.2
2021-05-03T10:25:00Z,00000200,01000000,0003.10,0002.34,0001.29,0000.50,0000.18,0000.21,0001.09,0001.02,0000.54,19.1,25.4,,00.0,0681.8,31.2
2021-05-03T10:26:00Z,00000200,01000000,0003.84,0002.18,0001.25,0000.80,0000.38,0000.14,0000.92,0000.88,0000.63,19.1,25.4,,00.0,0681.8,31.2
2021-05-03T10:27:00Z,00000200,01000000,0003.09,0002.25,0001.27,0000.66,0000.42,0000.02,0001.42,0001.23,0000.63,19.1,25.5,,00.0,0681.9,31.2
2021-05-03T10:28:00Z,00000200,01000000,0003.40,0002.01,0001.11,0000.86,0000.32,0000.14,0000.85,0001.07,0001.24,19.1,25.4,,00.0,0681.9,31.2
2021-05-03T10:29:00Z,00000200,01000000,0003.57,0002.25,0001.32,0000.72,0000.31,0000.36,0001.19,0000.95,0000.64,19.1,25.5,,00.0,0681.8,31.2
2021-05-03T10:30:00Z,00000200,01000000,0003.46,0002.00,0001.04,0001.14,0000.25,-000.08,0001.14,0000.80,0000.47,19.1,25.5,,00.0,0681.8,31.2
2021-05-03T10:31:00Z,00000200,01000000,0003.35,0001.98,0001.27,0000.63,0000.25,0000.39,0001.28,0000.99,0000.69,19.1,25.5,,00.0,0681.9,31.2
2021-05-03T10:32:00Z,00000200,01000000,0004.12,0001.95,0001.08,0000.55,0000.39,0000.17,0001.73,0001.61,0000.89,19.1,25.5,,00.0,0681.9,31.2
2021-05-03T10:33:00Z,00000200,01000000,0003.04,0002.17,0001.12,0000.29,0000.41,0000.33,0001.63,0001.51,0001.57,19.1,25.5,,00.0,0681.9,31.2
2021-05-03T10:34:00Z,00000200,01000000,0003.11,0002.24,0001.37,0000.82,0000.32,0000.27,0001.27,0001.68,0000.36,19.2,25.5,,00.0,0681.9,31.2
2021-05-03T10:35:00Z,00000200,01000000,0003.88,0002.21,0001.35,0000.96,0000.43,0000.29,0001.79,0001.31,0001.56,19.2,25.5,,00.0,0681.9,31.2
2021-05-03T10:36:00Z,00000200,01000000,0003.58,0002.41,0001.13,0000.97,0000.31,0000.34,0000.89,0000.70,0000.74,19.2,25.5,,00.0,0681.9,31.2
2021-05-03T10:37:00Z,00000200,01000000,0003.87,0002.47,0001.25,0000.83,0000.20,0000.05,0001.46,0001.63,0000.56,19.2,25.5,,00.0,0681.9,31.2
2021-05-03T10:38:00Z,00000200,01000000,0003.55,0002.30,0001.74,0000.76,0000.43,0000.36,0001.67,0000.92,0001.21,19.2,25.6,,00.0,0681.9,31.2
2021-05-03T10:39:00Z,00000200,01000000,0003.81,0002.62,0001.17,0000.78,0000.37,0000.37,0001.50,0001.42,0000.92,19.2,25.6,,00.0,0681.9,31.2
2021-05-03T10:40:00Z,00000200,01000000,0003.57,0002.52,0001.35,0000.93,0000.41,0000.26,0001.07,0001.39,0000.77,19.2,25.6,,00.0,0681.9,31.2
2021-05-03T10:41:00Z,00000200,01000000,0004.15,0002.42,0001.63,0000.69,0000.28,0000.42,0001.39,0000.83,0000.81,19.2,25.6,,00.0,0681.9,31.2
2021-05-03T10:42:00Z,00000200,01000000,0004.19,0001.94,0001.43,0000.92,0000.46,0000.34,0001.31,0001.32,0001.01,19.3,25.6,,00.0,0681.9,31.2
2021-05-03T10:43:00Z,00000200,01000000,0003.53,0002.64,0001.77,0000.42,0000.34,0000.35,0001.40,0001.20,0000.85,19.3,25.6,,00.0,0681.9,31.2
2021-05-03T10:44:00Z,00000200,01000000,0003.74,0002.46,0001.45,0000.91,0000.40,0000.12,0001.55,0001.38,0000.77,19.3,25.6,,00.0,0681.8,31.2
2021-05-03T10:45:00Z,00000200,01000000,0003.85,0002.58,0001.44,0000.85,0000.28,0000.14,0001.26,0001.19,0000.87,19.3,25.6,,00.0,0681.8,31.2
2021-05-03T10:46:00Z,00000200,01000000,0004.17,0002.33,0001.15,0000.36,0000.31,0000.35,0001.25,0001.29,0000.98,19.3,25.6,,00.0,0681.8,31.2
2021-05-03T10:47:00Z,00000200,01000000,0004.56,0002.29,0001.56,0000.85,0000.37,0000.15,0001.69,0001.27,0000.84,19.3,25.6,,00.0,0681.8,31.2
2021-05-03T10:48:00Z,00000200,01000000,0004.76,0002.67,0001.37,0001.06,0000.59,0000.10,0001.54,0000.92,0001.26,19.3,25.7,,00.0,0681.8,31.2
2021-05-03T10:49:00Z,00000200,01000000,0003.99,0002.33,0001.46,0000.66,0000.64,0000.22,0001.16,0001.48,0000.94,19.3,25.7,,00.0,0681.8,31.2
2021-05-03T10:50:00Z,00000200,01000000,0003.43,0002.53,0001.37,0000.29,0000.32,0000.48,0001.34,0001.52,0000.94,19.4,25.7,,00.0,0681.8,31.2
2021-05-03T10:51:00Z,00000200,01000000,0003.60,0002.26,0001.33,0000.31,0000.42,0000.25,0001.37,0000.86,0000.54,19.4,25.7,,00.0,0681.8,31.2
2021-05-03T10:52:00Z,00000200,01000000,0003.72,0002.41,0001.43,0000.92,0000.39,-000.01,0001.35,0001.37,0000.99,19.4,25.7,,00.0,0681.8,31.2
2021-05-03T10:53:00Z,00000200,01000000,0003.75,0002.57,0001.29,0001.01,0000.48,0000.05,0001.57,0001.35,0001.05,19.4,25.7,,00.0,0681.8,31.2
2021-05-03T10:54:00Z,00000200,01000000,0003.93,0002.70,0001.45,0000.49,0000.36,0000.54,0001.57,0001.41,0000.79,19.4,25.7,,00.0,0681.8,31.2
2021-05-03T10:55:00Z,00000200,01000000,0004.84,0002.75,0001.59,0000.81,0000.36,0000.52,0001.74,0001.42,0001.46,19.4,25.8,,00.0,0681.8,31.2
2021-05-03T10:56:00Z,00000200,01000000,0004.35,0003.05,0001.70,0001.02,0000.32,0000.27,0002.01,0002.08,0001.15,19.4,25.8,,00.0,0681.8,31.2
2021-05-03T10:57:00Z,00000200,41000000,,,,,,,-000.40,-000.30,0000.13,19.5,25.8,,00.0,0681.8,31.2
2021-05-03T10:58:00Z,00000200,61000000,,,,,,,0000.37,-000.04,-000.18,19.3,25.9,,00.0,0680.8,31.2
2021-05-03T10:59:00Z,00000200,21000000,,,,,,,-000.02,0000.11,-000.06,19.3,26.0,,00.0,0680.8,31.2
